Погода в Муслюмове

Россия / Республика Татарстан     55°18′16″N   53°11′23″E
темп.,
°C
ветер,
м/с
пор.,
м/с
влажн.,
%
обл.,
%
осадки,
мм/ч
давл.,
гПа
погр.,
м
7 марта, вс
вс700:00−17юз229969 0.0 101220
03:00−16юз229781 0.1 101225
06:00−16юз2397100 0.2 101140
09:00−13зюз359498 0.4 1011291
12:00−11з3592100 0.0 1010373
15:00−10зюз3591100 0.1 1010370
18:00−14ю339548 0.0 100927
21:00−15ю469565 0.0 1009112
8 марта, пн
пн800:00−13ю61393100 0.0 1005377
03:00−10ю71493100 0.6 1002709
06:00−7ю71593100 0.7 998878
09:00−4ююз91591100 1.1 9961053
12:00−3зюз10167695 0.1 9971179
15:00−5юз6117762 0.1 999912
18:00−7зюз5148457 0.0 1001361
21:00−10ю348844 0.0 100246
9 марта, вт
вт900:00−7юз4129569 0.1 1001459
03:00−7з589684 0.6 1002316
06:00−14з479548 0.2 1005122
09:00−12з469450 0.2 1009242
12:00−9з359285 0.0 1010337
15:00−9з239291 0.0 1010265
18:00−15сз1199100 0.0 101020
21:00−15ссв2298100 0.0 101020
10 марта, ср
ср1000:00−16с3398100 0.0 100837
03:00−16с3698100 0.1 1007172
06:00−16с61195100 0.1 1007365
09:00−19с71295100 0.1 1008389
12:00−19ссз81290100 0.0 1010451
15:00−18ссз71285100 0.0 1012625
18:00−19ссз51390100 0.0 1014652
21:00−22ссз5139399 0.0 1016370
11 марта, чт
чт1100:00−24ссз5119593 0.0 1017219
03:00−26сз499886 0.0 1019141
06:00−27сз359961 0.0 102177
09:00−23зсз479772 0.0 1022261
12:00−19зсз479497 0.0 1022342
15:00−17зсз479399 0.0 1023422
18:00−19з3698100 0.0 102493
21:00−20з339998 0.1 102647